Station 42012 (LLNR 138) - ORANGE BEACH - 44 NM SE of Mobile, AL Image indicating link to RSS feed of recent meteorological observations for station 42012


Conditions at 42012 as of
(7:30 am CDT)
1230 GMT on 07/20/2024:
     

Click on the graph icon in the table below to see a time series plot of the last five days of that observation.

5-day plot - Wind Direction Wind Direction (WDIR): SW ( 230 deg true )
5-day plot - Wind Speed Wind Speed (WSPD): 9.7 kts
5-day plot - Wind Gust Wind Gust (GST): 13.6 kts
5-day plot - Atmospheric Pressure Atmospheric Pressure (PRES):30.03 in
5-day plot - Air Temperature Air Temperature (ATMP): 84.4 °F
5-day plot - Water Temperature Water Temperature (WTMP): 86.4 °F
5-day plot - Dew Point Dew Point (DEWP): 79.0 °F
5-day plot - Heat Index Heat Index (HEAT): 96.6 °F
5-day plot - Wind Speed at 10 Meters Wind Speed at 10 meters (WSPD10M): 11.7 kts
5-day plot - Wind Speed at 20 Meters Wind Speed at 20 meters (WSPD20M): 11.7 kts
5-day plot -  Wind Speed, Wind Gust and Atmospheric Pressure Combined plot of Wind Speed, Gust, and Air Pressure
Supplemental Measurements
Highest 1-minute Wind Speed
Time (CDT)5-day plot - 1-Minute Wind Speed WSPD 5-day plot - 1-Minute Wind Direction WDIR
7:21 am 11.7 kts-
Previous observations
TIME
(CDT)
5-day plot - Wind Direction
WDIR
 
5-day plot - Wind Speed
WSPD
kts
5-day plot - Wind Gust
GST
kts
5-day plot - Wave Height
WVHT
ft
5-day plot - Dominant Wave Period
DPD
sec
5-day plot - Average Wave Period
APD
sec
5-day plot - Mean Wave Direction
MWD
 
5-day plot - Atmospheric Pressure
PRES
in
5-day plot - Pressure Tendency
PTDY
in
5-day plot - Air Temperature
ATMP
°F
5-day plot - Water Temperature
WTMP
°F
5-day plot - Dew Point
DEWP
°F
5-day plot - Salinity
SAL
psu
5-day plot - Visibility
VIS
nmi
5-day plot - Tide (above MLLW)
TIDE
ft
2024-07-20 07:20 am SW 11.7 13.6 2.3 53.4SSE30.02- 84.0 86.4 79.2---
2024-07-20 07:10 amWSW 11.7 13.6 2.3-3.4SSE30.02- 83.7 86.4 79.2---
2024-07-20 07:00 amWSW 11.7 13.6----30.02+0.01 83.5 86.4 79.3---
2024-07-20 06:50 amWSW 11.7 15.5 2.3 43.4SSE30.02- 83.7 86.4 79.3---
2024-07-20 06:40 am SW 13.6 15.5----30.02- 84.6 86.4 79.9---
2024-07-20 06:30 amSSW 11.7 13.6----30.02- 85.1 86.4 79.3---
2024-07-20 06:20 amSSW 11.7 13.6 2.3 43.4SSE30.02- 85.1 86.4 79.3---
2024-07-20 06:10 amSSW 11.7 13.6----30.02- 84.9 86.5 79.3---
2024-07-20 06:00 amSSW 11.7 15.5----30.02+0.01 85.1 86.5 79.5---
2024-07-20 05:50 amSSW 11.7 15.5 2.3 43.4 S30.02- 84.9 86.5 79.2---
2024-07-20 05:40 amSSW 11.7 13.6----30.02- 85.1 86.5 79.9---
2024-07-20 05:30 amSSW 11.7 13.6----30.01- 84.9 86.5 79.3---
2024-07-20 05:20 amSSW 13.6 15.5 2.3 43.3SSE30.01- 84.9 86.5 79.7---
2024-07-20 05:10 amSSW 13.6 15.5 2.3-3.3SSE30.01- 84.9 86.7 79.3---
2024-07-20 05:00 amSSW 13.6 15.5----30.01+0.00 84.9 86.7 79.3---
2024-07-20 04:50 amSSW 13.6 15.5 2.3 43.4 S30.02- 84.9 86.7 79.3---
2024-07-20 04:40 amSSW 13.6 15.5----30.02- 84.9 86.7 79.0---
2024-07-20 04:30 amSSW 13.6 15.5----30.01- 84.9 86.7 79.0---
2024-07-20 04:20 amSSW 13.6 15.5 2.3 43.3SSE30.01- 84.9 86.7 78.8---
2024-07-20 04:10 am S 13.6 15.5 2.3-3.3SSE30.01- 84.9 86.7 78.8---
2024-07-20 04:00 amSSW 13.6 15.5----30.01-0.02 85.1 86.7 78.4---
2024-07-20 03:50 amSSW 13.6 15.5 2.3 33.3 S30.00- 84.9 86.7 78.3---
2024-07-20 03:40 amSSW 11.7 13.6----30.00- 84.9 86.7 79.0---
2024-07-20 03:30 am S 11.7 13.6----30.00- 84.7 86.7 78.6---
2024-07-20 03:20 am S 11.7 13.6 2.3 43.3 S30.00- 84.9 86.7 78.3---
2024-07-20 03:10 am S 11.7 13.6 2.3-3.3 S30.00- 85.1 86.7 78.3---
2024-07-20 03:00 am S 11.7 15.5----30.01-0.04 84.9 86.5 78.6---
2024-07-20 02:50 am S 13.6 15.5 2.3 43.2 S30.01- 84.9 86.5 79.0---
2024-07-20 02:40 am S 13.6 15.5----30.01- 84.9 86.5 79.3---
2024-07-20 02:30 am S 13.6 17.5----30.01- 84.6 86.4 79.2---
2024-07-20 02:20 am S 11.7 21.4 2.3 33.2 S30.01- 83.7 86.4 78.6---
2024-07-20 02:10 am S 15.5 17.5 2.3-3.2 S30.02- 84.9 86.4 79.5---
2024-07-20 02:00 am S 15.5 17.5----30.02-0.03 84.4 86.4 79.2---
2024-07-20 01:50 am S 15.5 21.4 2.3 33.1 S30.02- 84.6 86.4 79.5---
2024-07-20 01:40 am S 13.6 17.5----30.02- 85.1 86.4 79.5---
2024-07-20 01:30 am S 13.6 15.5----30.03- 85.1 86.2 79.3---
2024-07-20 01:20 am S 13.6 15.5 2.0 33.1 S30.03- 85.1 86.4 79.3---
2024-07-20 01:10 amSSE 13.6 17.5 2.0-3.1 S30.03- 85.1 86.4 78.8---
2024-07-20 01:00 amSSE 13.6 15.5----30.03-0.01 85.1 86.4 78.8---
2024-07-20 12:50 amSSE 13.6 15.5 2.0 33.0 S30.03- 85.1 86.4 78.8---
2024-07-20 12:40 amSSE 11.7 15.5----30.04- 85.1 86.4 78.6---
2024-07-20 12:30 amSSE 13.6 15.5----30.04- 85.1 86.4 79.0---
2024-07-20 12:20 amSSE 13.6 15.5 1.6 33.1SSW30.04- 85.1 86.4 78.6---
2024-07-20 12:10 amSSE 11.7 15.5 1.6-3.1SSW30.04- 85.1 86.4 79.0---
2024-07-20 12:00 amSSE 13.6 15.5----30.04+0.02 85.1 86.4 79.0---
2024-07-19 11:50 pmSSE 13.6 15.5 1.6 33.0 S30.04- 85.1 86.4 78.8---
2024-07-19 11:40 pmSSE 13.6 15.5----30.04- 85.3 86.4 78.6---
2024-07-19 11:30 pmSSE 11.7 15.5----30.04- 85.3 86.4 78.3---
2024-07-19 11:20 pmSSE 11.7 15.5 1.6 33.0SSW30.05- 85.1 86.4 78.1---
2024-07-19 11:10 pmSSE 11.7 15.5 1.6-3.0SSW30.05- 85.1 86.5 78.8---
2024-07-19 11:00 pmSSE 11.7 13.6----30.05+0.04 85.1 86.5 78.3---
2024-07-19 10:50 pmSSE 11.7 13.6 1.3 43.1 SW30.05- 85.1 86.5 78.3---
2024-07-19 10:40 pm SE 11.7 13.6----30.05- 84.9 86.5 78.1---
2024-07-19 10:30 pm SE 11.7 13.6----30.05- 84.9 86.5 78.4---
2024-07-19 10:20 pm SE 9.7 13.6 1.3 43.2 SW30.04- 84.9 86.5 78.3---
2024-07-19 10:10 pmSSE 9.7 11.7 1.3-3.2 SW30.04- 84.9 86.5 78.1---
2024-07-19 10:00 pmSSE 9.7 11.7----30.04+0.04 84.7 86.5 78.1---
2024-07-19 09:50 pmSSE 9.7 11.7 1.3 43.0SSW30.04- 84.7 86.5 78.3---
2024-07-19 09:40 pmSSE 7.8 9.7----30.03- 84.4 86.4 78.3---
2024-07-19 09:30 pmSSE 7.8 9.7----30.03- 84.4 86.4 78.4---
2024-07-19 09:20 pmSSE 7.8 9.7 1.3 63.2SSE30.03- 84.2 86.4 78.1---
2024-07-19 09:10 pmSSE 7.8 9.7 1.3-3.2SSE30.02- 84.2 86.4 78.3---
2024-07-19 09:00 pmSSE 7.8 9.7----30.02+0.03 84.4 86.4 78.4---
2024-07-19 08:50 pm SE 9.7 11.7 1.3 23.1 S30.02- 84.4 86.2 78.4---
2024-07-19 08:40 pm SE 9.7 13.6 1.3-3.1 S30.01- 84.2 86.2 78.4---
2024-07-19 08:30 pmSSE 11.7 13.6----30.01- 84.2 86.2 78.8---
2024-07-19 08:20 pmSSE 9.7 11.7 1.0 43.6SSW30.01- 84.4 86.2 78.4---
2024-07-19 08:10 pm SE 9.7 11.7 1.0-3.6SSW30.01- 84.4 86.2 77.9---
2024-07-19 08:00 pm SE 7.8 9.7----30.01-0.02 84.4 86.2 77.5---
2024-07-19 07:50 pm SE 7.8 9.7 1.0 43.5SSW30.01- 84.4 86.2 77.5---
2024-07-19 07:40 pm SE 9.7 11.7 1.0-3.5SSW30.01- 84.4 86.2 77.4---
2024-07-19 07:30 pm SE 7.8 9.7----30.01- 84.6 86.2 77.0---
2024-07-19 07:20 pm SE 7.8 9.7 1.0 43.5 S30.00- 84.7 86.2 76.5---
2024-07-19 07:10 pm SE 7.8 9.7 1.0-3.5 S30.00- 84.7 86.4 76.1---
2024-07-19 07:00 pm SE 7.8 9.7----30.00-0.04 84.6 86.4 75.9---
2024-07-19 06:50 pm SE 7.8 9.7 1.0 43.5SSW29.99- 84.6 86.4 75.9---
2024-07-19 06:40 pm SE 7.8 9.7----29.99- 84.6 86.5 76.5---
2024-07-19 06:10 pm SE 9.7 11.7 1.0-3.6SSW29.99- 84.4 86.4 76.8---
2024-07-19 06:00 pmSSE 9.7 9.7----29.99-0.04 84.4 86.4 76.6---
2024-07-19 05:50 pmSSE 7.8 9.7 1.0 53.5 S29.99- 84.4 86.4 76.5---
2024-07-19 05:40 pm S 7.8 9.7----30.00- 84.4 86.4 76.6---
2024-07-19 05:30 pm S 7.8 9.7----30.01- 84.6 86.4 76.6---
2024-07-19 05:20 pm S 7.8 9.7 1.0 53.7SSW30.01- 84.6 86.4 76.6---
2024-07-19 05:10 pmSSW 7.8 11.7 1.0-3.7SSW30.02- 84.4 86.4 76.3---
2024-07-19 05:00 pm S 7.8 9.7----30.03+0.00 84.4 86.4 76.1---
2024-07-19 04:50 pm S 7.8 9.7 1.3 54.0SSW30.02- 84.4 86.4 75.9---
2024-07-19 04:40 pm S 7.8 9.7----30.03- 84.4 86.4 75.7---
2024-07-19 04:30 pm S 7.8 9.7----30.03- 84.2 86.4 75.0---
2024-07-19 04:20 pm S 9.7 11.7 1.0 44.1SSW30.03- 84.2 86.2 74.8---
2024-07-19 04:10 pm S 9.7 11.7 1.0-4.1SSW30.03- 84.0 86.2 74.8---
2024-07-19 04:00 pm S 7.8 9.7----30.03+0.00 83.7 86.4 74.3---
2024-07-19 03:50 pm S 7.8 9.7 1.0 54.3SSW30.03- 83.3 86.4 74.3---
2024-07-19 03:40 pm S 7.8 9.7----30.03- 83.1 86.5 74.3---
2024-07-19 03:30 pm S 7.8 9.7----30.03- 82.8 86.5 73.9---
2024-07-19 03:20 pm S 7.8 9.7 1.0 54.2 S30.03- 82.4 86.5 73.8---
2024-07-19 03:10 pm S 7.8 9.7 1.0-4.2 S30.03- 82.2 86.7 73.8---
2024-07-19 03:00 pm S 5.8 7.8----30.03-0.10 81.9 86.7 73.8---
2024-07-19 02:50 pm S 5.8 7.8 1.3 54.3SSW30.03- 81.5 86.5 73.4---
2024-07-19 02:40 pm S 5.8 7.8 1.3-4.3SSW30.02- 81.1 86.5 73.6---
2024-07-19 02:30 pm S 5.8 7.8----30.02- 81.0 86.4 73.2---
2024-07-19 02:20 pm S 5.8 5.8 1.3 54.3SSW30.02- 80.8 86.2 73.0---
2024-07-19 02:10 pm S 5.8 5.8 1.3-4.3SSW30.02- 80.6 86.2 72.7---
2024-07-19 02:00 pm S 3.9 5.8----30.02-0.10 80.6 86.2 72.3---
2024-07-19 01:50 pm- 0.0 1.9 1.3 44.3 SW30.03- 80.1 86.0 71.6---
2024-07-19 01:40 pmSSW 1.9 3.9----30.03- 79.5 86.0 71.6---
2024-07-19 01:30 pm- 0.0 1.9----30.03- 78.6 86.0 71.8---
2024-07-19 01:20 pm S 1.9 3.9 1.3 43.9SSW30.03- 77.7 86.0 72.0---
2024-07-19 01:10 pmSSE 5.8 11.7 1.3-3.9SSW30.04- 76.6 86.0 73.2---
2024-07-19 01:00 pm SE 9.7 11.7----30.04-0.05 76.3 86.0 73.9---
2024-07-19 12:50 pm SE 9.7 13.6 1.3 44.0SSW30.05- 76.1 86.2 73.9---
2024-07-19 12:40 pmESE 5.8 7.8----30.06- 75.9 86.2 73.8---
2024-07-19 12:30 pmESE 1.9 5.8----30.07- 75.6 86.4 73.2---
2024-07-19 12:20 pmESE 1.9 3.9 1.3 54.0SSW30.09- 75.6 86.4 73.2---
2024-07-19 12:10 pmESE 3.9 5.8 1.3-4.0SSW30.11- 75.4 86.4 72.9---
2024-07-19 12:00 pm SE 3.9 5.8----30.12+0.06 75.0 86.4 72.3---
2024-07-19 11:50 amSSE 3.9 5.8 1.3 44.0 S30.14- 75.0 86.4 72.1---
2024-07-19 11:40 amSSE 7.8 7.8----30.15- 75.0 86.2 71.8---
2024-07-19 11:30 am SE 5.8 11.7----30.14- 74.8 86.2 71.4---
2024-07-19 11:20 amESE 3.9 9.7 1.3 54.0 S30.14- 74.8 86.2 71.6---
2024-07-19 11:10 amSSW 11.7 23.3 1.3-4.0 S30.14- 76.3 86.2 73.0---
2024-07-19 11:00 amWNW 7.8 17.5----30.13+0.09 77.4 86.4 73.8---
2024-07-19 10:50 am N 5.8 7.8 1.3 54.0 S30.09- 76.6 86.4 73.0---
2024-07-19 10:40 amNNE 3.9 5.8----30.09- 76.1 86.4 72.9---
2024-07-19 10:30 am E 3.9 7.8----30.09- 75.6 86.4 72.5---
2024-07-19 10:20 amESE 5.8 7.8 1.3 53.8 S30.10- 75.2 86.4 72.1---
2024-07-19 10:10 amSSE 7.8 9.7 1.3-3.8 S30.10- 76.1 86.4 73.0---
2024-07-19 10:00 am S 3.9 7.8----30.10+0.07 77.4 86.4 73.8---
2024-07-19 09:50 am S 5.8 7.8 1.3 43.7 S30.10- 78.4 86.4 74.1---
2024-07-19 09:40 am E 7.8 9.7----30.08- 78.6 86.4 74.5---
2024-07-19 09:30 am E 7.8 11.7----30.08- 79.2 86.4 75.4---
2024-07-19 09:20 amESE 5.8 7.8 1.6 43.5 S30.07- 79.3 86.4 75.4---
2024-07-19 09:10 am E 7.8 9.7 1.6-3.5 S30.07- 80.1 86.4 75.6---
2024-07-19 09:00 amENE 5.8 9.7----30.06+0.05 81.0 86.4 75.4---
2024-07-19 08:50 am NE 5.8 7.8 1.6 43.3 S30.06- 80.8 86.4 75.7---
2024-07-19 08:40 am NE 7.8 9.7----30.06- 80.6 86.4 75.7---
2024-07-19 08:30 amNNE 7.8 11.7----30.05- 79.9 86.4 75.6---
2024-07-19 08:20 amNNE 9.7 13.6 2.0 33.1 W30.05- 79.9 86.4 76.1---
2024-07-19 08:10 amNNE 9.7 11.7 2.0-3.1 W30.04- 80.2 86.4 76.3---
2024-07-19 08:00 am N 5.8 9.7----30.04+0.04 80.2 86.4 75.7---
2024-07-19 07:50 am NW 7.8 11.7 2.3 32.9WNW30.03- 79.7 86.4 75.7---
2024-07-19 07:40 amWNW 13.6 17.5----30.03- 79.3 86.4 75.9---
2024-07-19 07:30 amWNW 17.5 21.4----30.03- 79.5 86.4 76.3---
2024-07-19 07:20 am NW 19.4 23.3 1.3 43.3 S30.03- 79.9 86.2 76.5---
2024-07-19 07:10 amWNW 21.4 25.3 1.3-3.3 S30.03- 79.7 86.2 75.7---
2024-07-19 07:00 am NW 17.5 21.4----30.03+0.03 80.4 86.4 76.1---
2024-07-19 06:50 amWNW 15.5 21.4 1.3 33.2SSW30.02- 82.6 86.9 77.2---

Detailed Wave Summary
for 42012 as of (7:10 am CDT)
1210 GMT on 07/20/2024:

These wave data are displayed in rounded times.

     

Click on the graph icon in the table below to see a time series plot of the last five days of that observation.

5-day plot - Significant Wave Height Significant Wave Height (WVHT): 2.3 ft
5-day plot - Swell Height Swell Height (SwH): 0.7 ft
5-day plot - Swell Period Swell Period (SwP): 5.6 sec
5-day plot - Swell Direction Swell Direction (SwD):SSE
5-day plot - Wind Wave Height Wind Wave Height (WWH): 2.0 ft
5-day plot - Wind Wave Period Wind Wave Period (WWP): 4.5 sec
5-day plot - Wind Wave Direction Wind Wave Direction (WWD):SSE
5-day plot - Average Wave Period Average Wave Period (APD): 3.4 sec
Previous observations
TIME
(CDT)
5-day plot - Wave Height
WVHT
ft
5-day plot - Swell Height
SwH
ft
5-day plot - Swell Period
SwP
sec
5-day plot - Swell Direction
SwD
 
5-day plot - Wind Wave Height
WWH
ft
5-day plot - Wind Wave Period
WWP
sec
5-day plot - Wind Wave Direction
WWD
 
5-day plot - Wave Steepness
STEEPNESS
 
5-day plot - Average Wave Period
APD
sec
2024-07-20 06:40 am 2.3 0.3 6.7SSE 2.3 4.3 SSE N/A 3.4
2024-07-20 06:10 am 2.3 0.7 5.9SSE 2.3 4.3 SSE N/A 3.4
2024-07-20 05:40 am 2.3 0.7 5.6SSE 2.3 4.0 S N/A 3.4
2024-07-20 05:10 am 2.3 0.3 7.1SSW 2.3 4.2 SSE N/A 3.3
2024-07-20 04:40 am 2.3 0.0-- 2.3 3.8 S N/A 3.4
2024-07-20 04:10 am 2.3 0.3 6.2 S 2.3 4.2 SSE N/A 3.3
2024-07-20 03:40 am 2.3 0.7 6.7SSE 2.0 3.4 S N/A 3.3
2024-07-20 03:10 am 2.3 0.3 6.7 S 2.0 4.0 S N/A 3.3
2024-07-20 02:40 am 2.3 0.3 7.1SSW 2.3 3.6 S N/A 3.2
2024-07-20 02:10 am 2.3 0.3 6.7 S 2.3 3.3 S N/A 3.2
2024-07-20 01:40 am 2.3 0.3 6.7 S 2.3 3.2 S N/A 3.1
2024-07-20 01:10 am 2.0 0.7 6.7SSE 2.0 3.0 S N/A 3.1
2024-07-20 12:40 am 2.0 0.3 6.7 S 1.6 2.9 S N/A 3.0
2024-07-20 12:10 am 1.6 0.7 6.2 S 1.6 3.1 SSW N/A 3.1
2024-07-19 11:40 pm 1.6 0.3 5.9SSW 1.6 2.7 S N/A 3.0
2024-07-19 11:10 pm 1.6 0.7 5.9 S 1.3 3.3 SSW N/A 3.0
2024-07-19 10:40 pm 1.3 0.7 6.7SSE 1.3 3.7 SW N/A 3.1
2024-07-19 10:10 pm 1.3 0.7 6.2 S 1.3 4.0 SW N/A 3.2
2024-07-19 09:40 pm 1.3 0.7 4.3SSW 1.3 3.7 SSW N/A 3.0
2024-07-19 09:10 pm 1.3 0.7 5.9SSE 1.0 3.8 SSW N/A 3.2
2024-07-19 08:40 pm 1.3 0.7 6.2 S 1.0 2.2 S N/A 3.1
2024-07-19 08:10 pm 1.0 0.7 5.0SSW 1.0 3.8 SSW N/A 3.6
2024-07-19 07:40 pm 1.0 0.7 4.8 S 1.0 3.8 SSW N/A 3.5
2024-07-19 07:10 pm 1.0 0.7 4.5 S 0.7 3.8 S N/A 3.5
2024-07-19 06:40 pm 1.0 0.7 4.2SSW 0.7 3.6 SSW N/A 3.5
2024-07-19 06:10 pm 1.0 0.7 4.8SSW 1.0 4.3 SSW N/A 3.6
2024-07-19 05:40 pm 1.0 0.7 4.5 S 0.7 3.8 SSW N/A 3.5
2024-07-19 05:10 pm 1.0 1.0 4.5SSW 0.7 4.2 SSW N/A 3.7
2024-07-19 04:40 pm 1.3 1.0 4.5SSW 0.7 4.0 SSW N/A 4.0
2024-07-19 04:10 pm 1.0 0.7 4.8SSW 1.0 4.3 SSW N/A 4.1
2024-07-19 03:40 pm 1.0 1.0 4.5SSW 0.7 4.0 SSW N/A 4.3
2024-07-19 03:10 pm 1.0 1.0 4.8 S 0.7 3.7 SSW N/A 4.2
2024-07-19 02:40 pm 1.3 1.0 4.5SSW 0.7 3.6 S N/A 4.3
2024-07-19 02:10 pm 1.3 1.0 4.5SSW 0.7 4.0 SSW N/A 4.3
2024-07-19 01:40 pm 1.3 1.0 4.3 SW 0.7 3.3 WSW N/A 4.3
2024-07-19 01:10 pm 1.3 1.0 4.3SSW 0.7 3.2 WSW N/A 3.9
2024-07-19 12:40 pm 1.3 1.0 4.2SSW 1.0 3.8 SW N/A 4.0
2024-07-19 12:10 pm 1.3 1.0 4.5SSW 0.7 3.6 SW N/A 4.0
2024-07-19 11:40 am 1.3 1.0 4.3 S 0.7 3.4 WSW N/A 4.0
2024-07-19 11:10 am 1.3 0.7 7.7SSE 1.0 5.0 S N/A 4.0
2024-07-19 10:40 am 1.3 1.0 4.5 S 0.7 3.7 S N/A 4.0
2024-07-19 10:10 am 1.3 1.0 4.8 S 1.0 4.0 S N/A 3.8
2024-07-19 09:40 am 1.3 1.0 4.2 S 1.0 3.6 S N/A 3.7
2024-07-19 09:10 am 1.6 1.0 4.8SSE 1.3 4.0 S N/A 3.5
2024-07-19 08:40 am 1.6 1.0 4.3 S 1.3 3.8 S N/A 3.3
2024-07-19 08:10 am 2.0 0.7 8.3SSE 2.0 3.1 W N/A 3.1
2024-07-19 07:40 am 2.3 0.7 7.7 SW 2.3 2.6 WNW N/A 2.9
2024-07-19 07:10 am 1.3 0.7 8.3WSW 1.3 3.8 S N/A 3.3

Plot of wave energy versus frequency (and period)